Location: *
(60.1759°S, 155.0663°W)
Time: 23:26:17
(UTC+00:00)

Meteor 1-10 Rocket - Pass Details

Date: 17 September 2019
Orbit: 835 x 911 km, 81.3° (Epoch: 21 October)

Event Time Altitude Azimuth Distance (km) Brightness Sun altitude
Rises 12:34:39 0° 198° (SSW) 3,438 7.8 -26.2°
Reaches altitude 10° 12:37:05 10° 196° (SSW) 2,502 7.0 -26.0°
Maximum altitude 12:42:47 84° 108° (ESE) 875 4.2 -25.5°
Enters shadow 12:44:42 44° 22° (NNE) 1,184 4.7 -25.4°
